Wind_Speed
22 22 21 20 19 18 15 15 16 16 18 19 21 22 22 23 23 24 24 25 24 25 24 24 23 24 23 23 23 23 23 22 23 23 24 25 25 26 27 29 30 32 33
24 24 24 23 20 18 17 17 19 20 21 23 26 26 27 28 28 29 28 29 29 29 29 28 27 27 26 26 26 26 26 26 26 26 27 27 28 29 29 30 31 33 34
25 26 25 23 22 21 21 20 21 23 26 27 29 30 31 32 32 33 33 32 32 32 32 32 32 30 29 29 29 29 30 29 29 29 30 31 32 33 33 34 35 36 37
27 27 27 26 24 24 25 25 27 28 30 31 33 34 34 35 35 36 35 34 35 35 35 35 35 33 32 31 31 31 32 32 32 33 34 35 35 36 37 39 40 41 42
29 29 30 30 29 29 29 30 31 33 34 35 37 37 37 37 37 37 37 36 37 37 37 37 37 36 35 34 33 33 34 35 36 37 38 39 40 41 42 44 45 46 47
31 31 32 33 33 34 34 34 35 36 37 39 39 38 38 39 39 39 39 39 39 39 39 39 39 38 37 36 36 37 38 38 39 41 42 43 45 46 47 48 49 50 52
35 35 35 36 37 37 38 38 39 40 41 41 41 41 40 40 40 40 40 40 40 40 40 41 40 39 38 39 39 40 41 42 44 45 46 48 49 50 51 52 52 54 55
37 37 37 38 39 40 41 43 44 44 44 44 44 43 42 41 41 41 41 41 40 40 41 41 41 40 40 41 42 44 45 46 48 49 50 51 52 53 54 55 55 56 58
38 39 40 41 42 43 45 45 46 46 46 45 44 44 43 42 42 42 42 42 42 43 43 43 43 43 44 45 46 48 50 51 52 53 54 55 55 56 57 58 58 59 60
40 40 41 42 43 45 46 46 46 46 45 44 43 43 43 42 42 43 44 45 45 46 46 47 48 47 49 51 52 53 54 54 55 56 56 57 58 59 59 60 60 61 62
41 42 43 43 45 46 47 47 46 46 45 43 43 43 43 44 44 46 47 48 48 49 50 51 53 54 55 56 57 57 57 58 59 60 60 60 60 60 60 60 61 62 63
40 42 44 44 45 45 46 46 45 44 44 43 43 44 45 46 47 49 50 51 52 54 56 57 58 59 59 60 60 61 61 61 62 62 61 61 61 60 61 61 62 62 63
37 40 42 43 43 43 45 46 45 44 44 45 45 47 48 49 50 52 54 56 57 59 60 61 62 62 62 63 63 63 63 62 62 62 61 61 60 61 61 61 61 61 60
37 38 37 38 40 41 43 43 44 44 45 47 49 50 51 53 54 56 57 58 60 61 62 63 62 63 64 63 62 61 61 60 59 59 59 59 59 59 60 59 59 58 58
33 34 35 36 36 37 38 40 42 44 46 48 50 52 53 55 56 57 58 58 59 59 58 58 57 57 58 58 58 58 58 58 57 58 58 58 58 58 58 57 56 54 53
33 33 33 33 32 33 35 38 39 41 42 44 47 48 50 51 51 52 53 53 53 53 53 53 53 54 54 55 55 55 55 55 56 56 56 57 57 56 54 52 51 49 48
33 32 33 34 34 34 35 36 38 40 41 42 44 44 43 43 45 46 47 47 48 49 50 50 51 52 52 52 53 53 54 54 54 54 53 52 51 49 48 46 45 44 41
29 29 30 30 31 32 33 35 36 37 38 40 41 42 42 43 44 44 44 45 46 47 48 49 50 50 51 52 51 51 51 50 49 48 47 46 44 43 41 40 38 37 35
29 28 27 28 29 29 30 31 33 34 35 37 38 39 41 42 43 43 44 45 45 46 46 47 47 47 47 47 47 46 45 45 44 43 41 40 38 36 34 32 30 29 27
24 24 25 26 26 27 28 30 32 33 34 35 36 37 38 39 40 41 41 42 42 43 43 43 43 43 42 42 42 41 40 39 38 36 33 32 30 28 26 24 22 21 20
20 21 23 23 24 25 27 28 30 31 32 32 33 34 35 36 37 37 37 38 39 39 39 38 38 37 37 37 35 34 32 30 28 26 24 23 21 19 18 17 15 14 13
19 20 21 22 23 24 25 26 27 28 28 29 30 31 32 33 34 34 34 35 35 35 33 33 32 32 31 30 28 26 24 22 20 18 16 14 13 11 11 9 8 8 9
19 20 21 22 23 24 24 25 25 25 26 26 27 28 29 30 30 30 31 31 31 29 28 27 27 26 25 23 22 20 18 16 13 10 8 7 6 6 5 4 5 6 7
17 19 20 21 21 22 23 23 23 24 24 25 25 26 27 27 27 26 26 26 25 23 23 22 22 21 20 19 17 15 12 9 6 4 3 2 2 2 3 4 5 5 6
16 17 18 18 19 20 20 21 21 21 22 22 22 23 23 22 22 22 21 20 20 20 19 19 19 17 15 13 10 7 5 2 1 2 3 4 5 6 6 6 6 7 8
15 16 16 17 18 19 19 19 20 19 19 18 18 19 19 18 17 17 17 17 17 17 16 16 15 13 11 8 6 4 3 4 5 6 7 8 8 8 8 8 9 9 10
Wind_Direction
256 255 256 259 249 245 247 247 257 263 271 283 288 287 289 292 293 294 294 292 294 295 296 300 301 302 304 304 302 301 301 301 301 302 301 300 298 297 298 297 293 289 286
254 262 268 267 265 262 263 272 268 271 277 284 289 287 290 294 294 293 292 291 291 291 290 292 293 295 296 298 296 295 295 294 295 296 296 296 295 295 295 295 294 291 289
257 264 268 268 270 272 273 279 280 278 280 283 286 287 289 290 291 289 287 287 288 288 289 289 290 290 290 292 292 292 292 291 292 292 293 293 293 292 292 292 291 290 288
258 264 267 270 274 278 280 281 281 281 281 281 284 286 285 285 286 286 285 284 285 286 287 287 288 288 289 290 291 291 290 290 290 290 290 290 290 290 290 289 289 288 287
256 263 269 275 276 279 280 280 283 283 279 282 283 284 284 284 284 284 284 285 285 285 284 285 288 289 288 288 289 289 289 289 290 289 289 289 288 289 289 289 288 287 286
257 262 268 272 275 276 278 279 282 283 284 284 285 286 284 283 283 283 283 284 284 285 283 285 288 287 287 287 288 289 289 289 289 288 288 288 288 288 288 287 287 286 286
255 261 265 268 270 273 275 278 280 283 284 284 284 284 283 281 280 280 281 282 283 284 284 287 287 287 287 288 289 290 290 289 289 288 288 288 288 288 287 287 286 285 285
252 257 261 265 268 271 273 275 279 280 282 282 282 281 282 281 279 279 281 282 284 284 286 287 289 290 289 288 289 289 289 288 288 288 288 288 288 288 287 286 286 285 285
250 254 258 262 265 268 271 274 276 278 280 280 280 280 280 279 279 281 282 283 284 285 286 287 288 289 289 288 288 288 288 288 288 288 288 288 289 288 288 287 286 286 285
250 253 257 260 264 267 271 274 275 277 278 278 278 278 278 279 279 280 281 282 284 285 286 287 288 289 289 288 288 288 288 288 288 288 289 289 289 289 289 288 288 288 287
250 254 257 259 262 265 268 270 272 273 274 275 275 276 277 278 279 280 281 282 284 285 286 287 288 288 288 288 288 288 288 288 288 288 289 290 290 290 289 289 289 289 288
253 254 256 258 260 262 264 266 268 269 270 271 273 275 276 278 279 280 281 282 284 285 286 287 287 287 287 288 288 288 288 288 288 289 289 289 290 289 289 289 289 289 289
259 259 259 258 260 262 263 263 264 265 267 269 271 273 275 276 278 279 280 282 283 284 285 285 285 286 287 287 287 287 287 288 289 289 289 289 289 289 289 289 289 290 291
264 264 266 265 264 264 263 263 263 264 267 269 271 272 274 276 277 278 279 280 282 283 284 284 284 284 285 286 286 287 287 288 289 289 289 288 288 288 288 289 289 290 291
269 269 269 267 266 265 265 266 265 267 268 270 272 273 275 276 276 277 278 280 280 282 283 284 285 286 286 286 286 287 288 289 289 288 288 288 288 288 288 288 289 290 291
276 277 275 274 272 272 271 271 271 271 272 273 274 275 276 276 276 279 280 281 282 284 286 286 287 288 288 288 288 288 288 288 288 287 287 287 287 288 288 289 290 291 292
284 285 283 285 286 284 282 281 277 275 275 277 278 279 281 283 284 287 288 288 289 291 290 289 289 289 289 288 287 287 287 287 287 288 288 288 288 288 289 290 290 291 291
287 290 292 291 290 288 286 285 285 284 285 286 285 286 286 288 289 290 291 291 291 291 290 289 289 289 288 288 287 288 287 287 287 288 288 288 289 289 290 290 290 291 292
289 292 292 290 289 288 286 287 288 288 288 288 288 288 290 292 293 294 294 294 292 291 290 290 289 289 289 288 288 288 288 288 288 288 287 287 288 288 288 289 290 291 294
292 291 292 291 289 288 289 288 289 290 291 292 293 295 295 295 296 296 296 295 294 293 292 290 290 290 289 289 290 290 290 290 290 288 287 287 287 287 287 288 290 293 298
293 293 294 294 293 293 293 293 294 295 296 297 297 297 298 298 299 299 299 298 297 295 294 293 292 292 292 293 293 293 294 294 292 289 288 287 288 288 289 291 294 299 306
296 297 298 298 298 299 299 299 299 299 300 301 301 301 302 302 302 301 301 301 300 299 297 297 296 296 296 295 295 295 296 295 294 291 289 289 290 293 296 299 305 312 318
298 300 301 303 303 304 304 304 304 305 305 306 306 306 307 307 306 305 305 305 305 304 303 303 302 301 299 298 298 297 296 295 294 295 295 296 299 304 311 321 333 337 341
305 306 306 307 307 308 307 307 308 309 309 310 311 311 312 312 311 311 311 311 312 313 314 314 312 309 305 303 301 300 299 296 297 305 318 332 349 10 23 23 19 15 14
310 311 312 313 314 315 314 314 313 313 315 316 317 318 320 321 320 320 321 322 322 322 324 325 325 324 322 318 315 314 315 324 14 58 71 75 79 78 67 60 53 43 35
319 319 320 321 321 321 322 322 321 320 322 324 326 328 329 329 329 330 331 332 333 335 336 338 340 345 350 358 9 30 61 78 84 87 89 89 85 80 74 69 59 48 38
Height
5862 5864 5867 5868 5870 5872 5873 5874 5875 5874 5873 5873 5873 5874 5874 5874 5873 5872 5871 5869 5868 5866 5865 5864 5863 5861 5860 5858 5856 5854 5852 5850 5848 5846 5843 5841 5838 5835 5832 5829 5826 5823 5821
5859 5861 5863 5864 5866 5868 5869 5870 5870 5870 5869 5869 5868 5867 5867 5866 5865 5865 5863 5862 5860 5859 5858 5857 5856 5855 5853 5852 5850 5849 5847 5844 5842 5840 5838 5835 5833 5830 5827 5823 5820 5817 5814
5854 5856 5858 5860 5862 5863 5864 5865 5865 5865 5864 5864 5863 5861 5860 5859 5858 5857 5856 5854 5853 5851 5850 5849 5848 5847 5846 5844 5843 5841 5840 5837 5835 5833 5831 5829 5826 5823 5820 5816 5813 5809 5806
5849 5852 5854 5855 5856 5857 5859 5859 5860 5860 5859 5858 5857 5855 5854 5853 5851 5849 5848 5846 5845 5844 5842 5841 5840 5839 5837 5836 5835 5833 5831 5829 5827 5825 5823 5820 5818 5815 5812 5808 5804 5800 5796
5845 5847 5848 5849 5850 5852 5853 5854 5854 5854 5852 5851 5850 5848 5846 5845 5843 5841 5840 5838 5837 5835 5834 5832 5831 5830 5829 5827 5826 5824 5823 5820 5818 5816 5813 5811 5808 5805 5802 5798 5794 5790 5786
5839 5840 5841 5843 5844 5845 5846 5847 5847 5846 5844 5843 5842 5840 5839 5838 5836 5834 5832 5830 5829 5827 5825 5823 5822 5821 5819 5818 5816 5815 5813 5811 5808 5805 5803 5800 5797 5794 5791 5787 5783 5778 5773
5834 5835 5835 5836 5837 5837 5838 5838 5838 5837 5836 5835 5834 5832 5831 5829 5827 5825 5823 5822 5820 5818 5817 5815 5812 5811 5810 5808 5806 5804 5802 5799 5797 5794 5791 5788 5785 5781 5778 5774 5770 5766 5760
5827 5828 5829 5830 5830 5830 5830 5830 5829 5828 5827 5826 5825 5823 5822 5820 5818 5817 5814 5813 5810 5808 5807 5805 5803 5801 5799 5797 5795 5793 5790 5787 5784 5781 5778 5774 5771 5767 5764 5760 5756 5752 5747
5820 5820 5820 5821 5821 5821 5821 5821 5820 5819 5818 5817 5815 5814 5813 5811 5809 5807 5805 5803 5801 5799 5797 5795 5793 5791 5789 5786 5783 5781 5778 5774 5771 5768 5764 5760 5756 5752 5748 5744 5740 5737 5732
5811 5812 5812 5812 5812 5812 5811 5811 5811 5810 5808 5807 5806 5805 5803 5802 5800 5798 5796 5793 5791 5789 5787 5784 5782 5780 5777 5774 5771 5768 5764 5761 5757 5754 5749 5745 5741 5737 5732 5728 5723 5719 5715
5802 5802 5803 5803 5804 5803 5802 5802 5801 5800 5799 5798 5797 5795 5794 5792 5790 5788 5786 5783 5780 5778 5775 5773 5770 5767 5764 5760 5757 5754 5750 5746 5742 5738 5734 5730 5726 5721 5716 5711 5706 5702 5697
5792 5793 5793 5794 5794 5793 5793 5792 5791 5790 5789 5788 5787 5786 5784 5782 5779 5777 5774 5772 5769 5766 5763 5760 5757 5753 5749 5746 5742 5739 5735 5731 5727 5723 5719 5714 5710 5705 5700 5695 5690 5685 5680
5783 5783 5783 5783 5783 5783 5783 5782 5782 5780 5779 5778 5777 5775 5773 5771 5769 5766 5763 5760 5757 5754 5750 5747 5743 5739 5735 5731 5727 5723 5719 5715 5711 5707 5703 5698 5693 5689 5684 5679 5674 5669 5664
5774 5774 5774 5774 5774 5773 5773 5772 5771 5770 5769 5768 5766 5764 5762 5759 5757 5754 5751 5748 5744 5741 5737 5732 5728 5724 5720 5716 5712 5708 5703 5699 5695 5690 5686 5682 5677 5672 5668 5663 5659 5654 5650
5767 5766 5765 5765 5764 5763 5763 5762 5761 5760 5759 5757 5755 5753 5750 5747 5744 5741 5738 5734 5731 5727 5723 5718 5713 5709 5705 5701 5697 5692 5688 5683 5679 5674 5670 5666 5661 5656 5652 5648 5644 5640 5636
5758 5758 5757 5756 5755 5755 5754 5752 5751 5750 5748 5746 5743 5740 5737 5734 5731 5727 5724 5720 5716 5712 5708 5704 5699 5695 5690 5686 5681 5677 5672 5667 5663 5658 5654 5650 5645 5641 5637 5633 5630 5627 5624
5750 5749 5748 5747 5746 5745 5745 5743 5741 5739 5737 5734 5731 5728 5724 5721 5717 5714 5710 5706 5702 5698 5694 5689 5684 5680 5675 5670 5665 5661 5656 5652 5647 5643 5639 5634 5630 5627 5623 5620 5617 5615 5612
5742 5740 5739 5738 5737 5736 5735 5733 5731 5729 5726 5723 5720 5716 5713 5709 5705 5701 5698 5693 5689 5684 5679 5674 5669 5665 5660 5655 5650 5645 5641 5636 5632 5628 5624 5621 5618 5615 5612 5609 5607 5605 5603
5735 5733 5732 5731 5729 5728 5726 5724 5721 5718 5716 5712 5709 5706 5702 5697 5693 5689 5685 5680 5675 5670 5665 5660 5655 5650 5645 5640 5636 5631 5626 5622 5618 5615 5612 5609 5606 5604 5602 5601 5599 5597 5596
5727 5726 5725 5723 5721 5719 5717 5715 5712 5709 5706 5702 5698 5695 5690 5686 5682 5677 5672 5667 5662 5657 5652 5647 5642 5637 5632 5627 5623 5619 5614 5610 5606 5603 5601 5599 5598 5596 5595 5594 5593 5592 5590
5721 5719 5717 5715 5713 5711 5709 5706 5703 5699 5696 5692 5688 5684 5680 5675 5671 5666 5661 5656 5651 5646 5640 5635 5630 5625 5620 5616 5612 5608 5604 5601 5597 5595 5594 5593 5591 5591 5590 5590 5589 5588 5587
5715 5713 5711 5708 5706 5703 5701 5698 5694 5691 5687 5683 5679 5675 5670 5666 5661 5656 5651 5646 5641 5635 5630 5625 5620 5615 5611 5607 5603 5600 5597 5594 5592 5590 5589 5588 5588 5588 5587 5587 5586 5586 5585
5709 5707 5705 5702 5699 5696 5693 5690 5686 5683 5679 5675 5671 5667 5662 5657 5652 5647 5642 5637 5632 5627 5622 5617 5612 5607 5603 5599 5596 5594 5592 5590 5588 5587 5587 5586 5586 5586 5586 5586 5585 5585 5584
5704 5701 5699 5696 5693 5690 5687 5683 5680 5676 5672 5668 5664 5659 5654 5649 5644 5639 5635 5630 5625 5620 5615 5610 5606 5601 5597 5594 5591 5589 5588 5587 5586 5586 5586 5586 5586 5586 5586 5586 5585 5585 5583
5699 5697 5694 5691 5687 5684 5680 5677 5673 5669 5665 5661 5657 5653 5648 5643 5638 5634 5629 5625 5621 5616 5612 5607 5602 5598 5594 5590 5588 5587 5586 5586 5586 5586 5586 5586 5587 5587 5587 5587 5586 5585 5584
5695 5692 5689 5686 5682 5679 5675 5671 5667 5664 5660 5656 5652 5648 5643 5639 5635 5631 5627 5622 5618 5614 5609 5605 5601 5596 5593 5590 5588 5587 5587 5587 5587 5588 5588 5588 5589 5589 5589 5588 5588 5587 5585